www.pogodaiklimat.ru

Погода и климат >> Архив погоды >> Россия >> Краснодарский край >> Славянск-на-Кубани


ПОГОДА в Славянске-на-Кубани

  • Прогноз погоды в Славянске-на-Кубани
  • Монитор погоды в Славянске-на-Кубани

АРХИВ ПОГОДЫ в Славянске-на-Кубани

Время (UTC), дата Ветер
(напр.,м/с)
 
Видим.   Явления Облачность Т
(С)
Тd
(С)
f
(%)
Тe
(С)
Тes
(С)
Комфортность P
(гПа)
Po
(гПа)
Тmin
(С)
Tmax
(С)
R
(мм)
R24
(мм)
S
(см)
21 15.09 штиль 0 10 км ясно +11.3 +8.1 81 +11 +11 1020.7 1019.5
00 16.09 штиль 0 10 км ясно +8.2 +6.6 90 +7 +7 1020.0 1018.9
03 16.09 штиль 0 10 км ясно +8.3 +7.1 92 +7 +7 1018.9 1017.8 +7.5
06 16.09 СВ 1 10 км ясно +17.4 +5.7 46 +18 +24 1017.9 1016.9
09 16.09 СВ 1 10 км ясно +24.1 +5.2 29 +24 +37 комфорт 1016.3 1015.2
12 16.09 З 2 10 км ясно +25.9 +5.7 27 +25 +32 комфорт 1014.2 1013.1
15 16.09 СЗ 2 10 км ясно +21.4 +7.2 40 +22 +22 комфорт 1013.8 1012.7 +26.1
18 16.09 штиль 0 10 км ясно +11.6 +7.6 76 +11 +11 1014.1 1013.0
21 16.09 ЮЗ 1 10 км ясно +10.7 +7.5 81 +10 +10 1013.8 1012.7
00 17.09 штиль 0 10 км ясно +9.5 +5.8 78 +9 +9 1013.2 1012.1
03 17.09 штиль 0 10 км ясно +9.6 +7.7 88 +9 +9 1012.8 1011.7 +8.7
06 17.09 ЮЗ 2 10 км ясно +19.3 +12.6 65 +21 +25 комфорт 1012.6 1011.5
09 17.09 З 3 10 км 3/3 600 м
[Cu hum]
+25.0 +7.2 32 +25 +31 комфорт 1011.7 1010.6
12 17.09 З 5-10
{10}
10 км 4/3 600 м
[Cu hum Ci fib]
+25.6 +6.6 30 +25 +28 комфорт 1010.9 1009.8
15 17.09 ЮЗ 2
{10}
10 км 10/0
[Ac trans Ci]
+21.5 +11.0 51 +23 +23 комфорт 1010.8 1009.7 +26.5
18 17.09 ЮЗ 1 10 км 10/0
[Ac As]
+19.3 +12.7 66 +22 +22 комфорт 1011.6 1010.5
21 17.09 ЮЗ 1 10 км 10/0
[Ac und]
+19.7 +14.2 71 +23 +23 комфорт 1011.9 1010.8
00 18.09 Ю 1 10 км в посл. час ливневой дождь 10/0
[Ac trans Cc]
+18.6 +15.7 83 +21 +21 комфорт 1010.6 1009.5
03 18.09 ЮВ 1 4000 м слаб. ливневой дождь 10/8 600 м
[Cb cap Ac trans Ci]
+18.9 +17.1 89 +21 +21 комфорт 1010.8 1009.7 +18.4 2
06 18.09 ЮЗ 2 10 км {ливн. осадки} 10/3 600 м
[Cu med, cong Ac und]
+22.8 +16.6 68 +27 +28 душно 1011.4 1010.4
09 18.09 Ю 4
{11}
10 км 4/4 600 м
[Cu med, cong]
+25.2 +14.6 52 +28 +32 жарко 1010.8 1009.7
12 18.09 ЮЗ 5-16
{16}
10 км 4/0
[Ac trans]
+26.0 +14.2 48 +28 +31 жарко 1009.8 1008.7
15 18.09 ЮЗ 4-11
{16}
10 км 4/0
[Ac As]
+23.1 +15.3 61 +27 +27 душно 1010.2 1009.1 +26.3 2
18 18.09 З 2
{13}
10 км {гроза, ливн. осадки} 10/3 300 м
[Cb calv Ac As]
+17.4 +13.4 77 +18 +18 1014.3 1013.2
21 18.09 З 1 10 км 10/8 600 м
[Sc Ac As]
+16.1 +10.1 68 +17 +17 1016.5 1015.4
00 19.09 СЗ 1 10 км 10/5 600 м
[Sc Ac As]
+14.5 +8.6 68 +15 +15 1017.8 1016.7
03 19.09 штиль 0 10 км 4/0
[Ci fib]
+9.9 +8.2 89 +9 +9 1019.1 1018.0 +9.9 12
06 19.09 СЗ 2 10 км 4/0
[Ci fib]
+16.7 +7.2 53 +17 +21 1020.3 1019.2 +9.5
09 19.09 СЗ 3 10 км 9/6 600 м
[Cu hum Ac trans Ci fib]
+19.1 +6.1 43 +20 +22 1020.5 1019.4
12 19.09 СЗ 2 10 км 9/3 600 м
[Cu hum Ac trans]
+17.7 +6.4 47 +18 +20 1020.8 1019.7
15 19.09 СЗ 1 10 км 10/0
[Ac und]
+15.3 +8.0 62 +16 +16 1020.7 1019.6 +19.4
18 19.09 штиль 0 10 км 10/0
[Ac und]
+12.4 +9.1 80 +12 +12 1020.7 1019.6
21 19.09 штиль 0 10 км 10/0
[Ac und]
+11.6 +9.8 89 +11 +11 1020.2 1019.1
00 20.09 штиль 0 4000 м дымка 10/0
[Ac und]
+11.6 +10.1 91 +11 +11 1019.7 1018.6
03 20.09 В 1 10 км 10/4 600 м
[Sc Ac trans]
+12.7 +9.3 80 +13 +13 1018.2 1017.1 +11.4
06 20.09 В 1 10 км в посл. час ливневой дождь 10/3 600 м
[Cb calv Ac As]
+12.4 +9.6 83 +12 +13 1017.5 1016.4
09 20.09 СВ 2 10 км в посл. час ливневой дождь 10/4 600 м
[Sc Ac As]
+12.7 +8.8 77 +12 +14 1016.8 1015.7
12 20.09 С 3 10 км {ливн. осадки} 10/8 600 м
[Sc Ac As]
+11.9 +7.8 76 +10 +11 1016.2 1015.1
15 20.09 СВ 1 4000 м слаб. ливневой дождь 10/6 600 м
[Cb cap Ac As]
+9.9 +8.2 89 +9 +9 1017.0 1015.9 +13.0 1
18 20.09 В 2 10 км в посл. час ливневой дождь 8/3 600 м
[Cb calv Ac trans Ci fib]
+9.3 +8.0 92 +8 +8 1017.1 1015.9
21 20.09 штиль 0 4000 м дымка ясно +6.2 +5.0 92 +5 +5 1017.0 1015.9
00 21.09 В 1 4000 м дымка 3/0
[Ac trans]
+7.8 +6.8 93 +7 +7 1017.0 1015.8
03 21.09 ЮЗ 1 4000 м дымка 8/4 600 м
[Cu med, cong Ac trans]
+7.6 +6.6 93 +7 +7 1017.0 1015.9 +5.8 3
06 21.09 З 2 4000 м слаб. ливневой дождь {туман} 10/8 600 м
[Cb cap Ac trans]
+9.3 +8.3 93 +7 +8 1018.0 1016.9
09 21.09 штиль 0 10 км гроза без осадков {ливн. осадки} 8/4 600 м
[Cb calv Ac trans Ci]
+13.8 +6.9 63 +14 +19 1018.5 1017.4
12 21.09 С 2
{12}
10 км в посл. час гроза {ливн. осадки} 4/3 600 м
[Cb calv Ac trans Ci ing]
+14.7 +6.0 56 +15 +19 1019.2 1018.1
15 21.09 штиль 0
{13}
10 км {ливн. осадки} 4/3 600 м
[Cb calv Ci ing]
+10.9 +6.0 72 +10 +11 1020.2 1019.1 +15.6 1
18 21.09 ЮЗ 1 10 км в посл. час ливневой дождь 4/0
[Ac trans]
+8.7 +5.4 80 +8 +8 1021.4 1020.3
21 21.09 штиль 0 10 км 3/0
[Ac trans]
+6.7 +4.8 88 +6 +6 1022.0 1020.9
00 22.09 ЮЗ 2 10 км 8/0
[Ac trans]
+9.5 +5.7 77 +8 +8 1022.1 1021.0
03 22.09 З 2 10 км 9/8 600 м
[Sc Ac trans]
+9.3 +5.4 77 +8 +8 1022.5 1021.4 +6.1 0.5
06 22.09 З 3 10 км 3/0
[Ci fib]
+13.5 +5.0 56 +13 +16 1022.8 1021.7
09 22.09 З 5
{12}
10 км 10/0
[Ac und]
+16.5 +1.8 37 +16 +17 1021.8 1020.7
12 22.09 ЮЗ 4
{12}
10 км 10/5 600 м
[Sc Ac und]
+17.0 +7.0 52 +17 +17 1021.0 1019.9
15 22.09 ЮЗ 2
{10}
10 км 9/0
[Ac trans]
+15.5 +7.0 57 +15 +15 1019.9 1018.8 +18.0

 

Местоположение метеостанции Славянск-на-Кубани (Краснодарский край, Россия): широта 45.28 долгота 38.12 высота над уровнем моря 9 м.

В архиве по умолчанию представлена погода в Славянске-на-Кубани за последнюю неделю. Архивные данные за месяц целиком и за предыдущие месяцы, начиная с января 2011 года, Вы можете получить, выбрав интересующий диапазон дат из раскрывающегося списка и нажав кнопку "Ввод!".


*Определитесь, кто Вы:
робот инопланетянин человек

Внимание! Время в таблицах - всемирное. Для получения местного времени необходимо прибавить поправку, которая равна 3 ч.

Смотрите также архив погоды в соседних городах и на ближайших метеорологических станциях:

Погода в Крымске (Краснодарский край, Россия) (41 км)
Погода в Темрюке (Краснодарский край, Россия) (58 км)
Погода в Новороссийске (Краснодарский край, Россия) (66 км)
Погода в Тимашевске (Краснодарский край, Россия) (74 км)
Погода в Краснодаре (Краснодарский край, Россия) (76 км)
Погода в Геленджике (Краснодарский край, Россия) (79 км)
Погода в Анапе (Краснодарский край, Россия) (80 км)
Погода в Приморско-Ахтарске (Краснодарский край, Россия) (83 км)
Погода в Горячем Ключе (Краснодарский край, Россия) (106 км)
Погода в Кореновске (Краснодарский край, Россия) (108 км)

Пояснения к столбцам:

Ветер - указаны скорость ветра в м/с - средняя за 10 мин, порывы в срок и между сроками (в фигурных скобках) и направление, откуда дует ветер: С - северный, СВ - северо-восточный, В - восточный, ЮВ - юго-восточный, Ю - южный, ЮЗ - юго-западный, З - западный, СЗ - северо-западный.
Видимость - горизонтальная дальность видимости в метрах или километрах. При видимости от 1 до 10 км при отсутствии осадков обычно наблюдается дымка, при ухудшении видимости до 1 км и менее - туман. В сухую погоду видимость может ухудшаться дымом, пылью или мглою.
Явления - указаны атмосферные явления, наблюдавшиеся в срок или в последний час перед сроком; фигурными скобками обозначены явления, наблюдавшиеся между сроками (за 1-3 часа до срока); квадратными скобками обозначены град или гололедные отложения с указанием их диаметра в мм.
Облачность - указаны через наклонную черту общая и нижняя облачность в баллах и высота нижней границы облаков в метрах; квадратными скобками обозначены формы облаков: Ci - перистые, Cs - перисто-слоистые, Cc - перисто-кучевые, Ac - высококучевые, As - высокослоистые, Sc - слоисто-кучевые, Ns - слоисто-дождевые, Cu - кучевые, Cb - кучево-дождевые. Подробнее классификацию облаков см. в Атласе облаков (PDF).
T - Температура воздуха - температура, измеренная на высоте 2 м над землей.
Td - Температура точки росы - температура, при понижении до которой содержащийся в воздухе водяной пар достигнет насыщения.
f - Относительная влажность воздуха - влажноcть воздуха, измеренная на высоте 2 м над землей.
Te - Эффективная температура - температура, которую ощущает одетый по сезону человек в тени. Характеристика душности погоды. При расчете учитывается влияние влажности воздуха и скорости ветра на теплоощущения человека.
Tes - Эффективная температура на солнце - температура, которую ощущает человек, с поправкой на солнечный нагрев. Характеристика знойности погоды. Зависит от высоты солнца над горизонтом, облачности и скорости ветра. Ночью, в пасмурную погоду, а также при ветре 12 м/с и более поправка равна нулю.
P - Атмосферное давление - приведенное к уровню моря атмосферное давление.
Po - Атмосферное давление - измеренное на уровне метеостанции атмосферное давление.
Tmin - Минимальная температура - минимум температуры воздуха на высоте 2 м над землей.
Tmax - Максимальная температура - максимум температуры воздуха на высоте 2 м над землей.
R - Количество осадков - Количество выпавших осадков за период времени, мм. При наведении курсора мыши на число - период времени, за который выпало указанное количество осадков.
R24 - Количество осадков - Количество выпавших осадков за 24 часа, мм.
S - Снежный покров - Высота снежного покрова, см. При наведении курсора мыши на число - состояние снежного покрова и степень покрытия местности в баллах.